星链-5406 (STARLINK-5406 )

导读

STARLINK-5406是美国太空探索技术公司SpaceX星链(Starlink)低轨互联网星座的组成卫星,于2022年12月28日发射入轨。卫星属于Starlink v1.5版本,运行在近地轨道,承载通信载荷,采用霍尔推进系统,具备自主避撞能力,旨在为全球提供高速宽带互联网接入服务,截至目前仍在轨正常工作,单星设计寿命约5-7年。

基本信息
目录编号:
54860
目录名称:
STARLINK-5406
国际标识:
2022-177AS
轨道中心:
EARTH
卫星名称:
星链-5406
卫星全名:
星链-5406 (STARLINK-5406 )
卫星状态:
在轨 (已飞行1267 天)
发射日期:
2022-12-28 UTC
国别 :
美国 (US)
星等 :
--
轨道信息
数据来源 国际轨道数据
星历时间: 2026-06-16T22:08:56+0800
19小时前
查看轨道信息
半长轴: 6861.196km
偏心率: 0.0001684
轨道倾角: 43.001°
近地点辐角 270.191°
升交点赤经 283.249°
平近点角 89.875°
近地点: 481.903km
远地点: 484.215km
周期: 94.267分钟
每日圈数: 15.275767
详细信息
固有亮度:
5
最大亮度:
2.5
卫星平台:
Starlink v1.5
覆盖范围:
全球
运营商:
太空探索技术公司
运营商所在国:
美国
制造商(研发单位):
太空探索技术公司
制造商所在国:
美国
使用方式:
暂无
卫星简介
星链(Starlink)计划是由太空探索技术公司(SpaceX)提出的一个巨型低轨卫星互联网星座项目,计划在2019年至2024年间在太空搭建由约1.2万颗卫星组成的“星链”网络,其中1584颗将部署在地球上空550千米处的近地轨道,并从2020年开始工作。该卫星仍在工作。
2D轨道图
3D轨道图
轨道高度分析图
轨道倾角分析图
轨道综合分析图
查看轨道综合分析图